Regional Weather Roundup
Issued by NWS

Home | Current Version | Previous Version | Graphics & Text | Print | Product List | Glossary On
Versions: 1 2 3 4 5 6 7 8 9 10 11 12 13 14 15 16 17 18 19 20 21 22 23 24 25 26 27 28 29 30 31 32 33 34 35 36 37 38 39 40 41 42 43 44 45 46 47 48 49 50
000
ASUS43 KIND 130809
RWRIN

WEATHER ROUNDUP FOR INDIANA
NATIONAL WEATHER SERVICE INDIANAPOLIS IN
400 AM EDT SUN JUL 13 2014

NOTE: "FAIR" INDICATES FEW OR NO CLOUDS BELOW 12,000 FEET WITH NO
SIGNIFICANT WEATHER AND/OR OBSTRUCTIONS TO VISIBILITY.

* - STATION DOES NOT REPORT WEATHER SUCH AS PRECIPITATION OR FOG.

+ - STATION NOT QUALITY CONTROLLED BY THE NATIONAL WEATHER SERVICE.
    USE DATA WITH CAUTION...ESPECIALLY DEWPOINT AND RELATIVE
    HUMIDITY OBSERVATIONS.

INZ001>003-010>013-019-020-130900-
NORTHWEST INDIANA

CITY           SKY/WX    TMP DP  RH WIND       PRES   REMARKS
GARY /AIRPORT/ CLOUDY    74  72  93 W8        29.86R
KNOX *+        CLOUDY    75  72  88 SW13      29.85F
LA PORTE +     CLOUDY    70  70 100 SW3       29.85F
MICHIGAN CITY+ DRIZZLE   70  70 100 CALM      29.85F
MONTICELLO +   CLOUDY    76  74  91 SW9       29.89F
RENSSELAER +   CLOUDY    73  73 100 SW15G23   29.90S
VALPARAISO     LGT RAIN  74  70  87 W17       29.87S

$$

LMZ046-743>745-130900-
SOUTHERN LAKE MICHIGAN

STATION/POSITION TIME  TEMP WIND        PRES
                       AIR  DIR/SP/G
                 (UTC) (F)  (DEG/KT/KT) (MB)
MICHIGAN CITY    0800   70  210/  4/  5   N/A

$$

INZ004-005-014>016-021>024-130900-
NORTH CENTRAL INDIANA

CITY           SKY/WX    TMP DP  RH WIND       PRES   REMARKS
GOSHEN         RAIN      76  73  91 S9        29.86F FOG
LOGANSPORT +   CLOUDY    73  70  88 SW8       29.91S
PERU/GRISSOM   CLOUDY    76  76 100 SW13      29.91F
ROCHESTER +    RAIN      77  73  88 S5        29.89F
SOUTH BEND     HVY RAIN  70  68  93 N8        29.85F FOG
WARSAW +       RAIN      73  73 100 SW5       29.89F

$$

INZ006>009-017-018-025>027-130900-
NORTHEAST INDIANA

CITY           SKY/WX    TMP DP  RH WIND       PRES   REMARKS
ANGOLA *+      MOCLDY    75  66  73 SW12      29.87F
AUBURN +       CLOUDY    77  70  78 SW8       29.90S
FORT WAYNE     CLOUDY    76  71  85 SW15      29.90S
HUNTINGTON +   CLOUDY    76  72  87 SW9       29.90F

$$

INZ028-029-035-036-043>045-051>053-130900-
WEST CENTRAL INDIANA

CITY           SKY/WX    TMP DP  RH WIND       PRES   REMARKS
GREENCASTLE +  CLOUDY    75  72  88 S5        29.97R
LAFAYETTE      CLOUDY    77  73  87 W12G20    29.91R
TERRE HAUTE    CLOUDY    77  72  84 SW9       29.95S

$$

INZ030>032-037>040-046>048-054>057-064-065-130900-
CENTRAL INDIANA

CITY           SKY/WX    TMP DP  RH WIND       PRES   REMARKS
CP ATTERBURY + CLOUDY    75  68  78 SW5       29.98S
FRANKFORT +    CLOUDY    77  77 100 SW10      29.94
INDIANAPOLIS   CLOUDY    76  71  85 SW10      29.95R
-EAGLE CREEK   CLOUDY    77  70  79 SW7G16    29.95R
KOKOMO *+      CLOUDY    75  72  88 SW15G23   29.91F
MARION +       CLOUDY    74  71  88 SW13G18   29.93F
MT COMFORT *+  CLOUDY    73 N/A N/A S8        29.96S
SHELBYVILLE    CLOUDY    75  70  84 S9        29.97S
ZIONSVILLE +   CLOUDY    76  70  80 SW9       29.95S

$$

INZ033-034-041-042-049-050-058-059-130900-
EAST CENTRAL INDIANA

CITY           SKY/WX    TMP DP  RH WIND       PRES   REMARKS
MUNCIE         CLOUDY    77  69  76 SW12G18   29.94F

$$

INZ060-061-067>069-081>083-085>088-130900-
SOUTHWEST INDIANA

CITY           SKY/WX    TMP DP  RH WIND       PRES   REMARKS
EVANSVILLE     PTCLDY    77  71  82 SW8       30.00F
HUNTINGBURG *+ MOCLDY    75  70  83 SW8       30.00F
WASHINGTON +   MOCLDY    77  72  84 SW8       29.97S

$$

INZ062-063-066-070>080-084-089>092-130900-
SOUTH CENTRAL AND SOUTHEAST INDIANA

CITY           SKY/WX    TMP DP  RH WIND       PRES   REMARKS
BLOOMINGTON    CLOUDY    79  70  74 SW12G23   29.99R
NORTH VERNON + CLOUDY    75  72  88 S7        30.00
SEYMOUR +      CLOUDY    72  57  60 S9        29.98

$$



USA.gov is the U.S. government's official web portal to all federal, state and local government web resources and services.